Preview of NWS' New Version of Forecast
This preview is not operational and should not be used for support decisions.

Regional Weather Roundup (RWR)

Issued by National Weather Service (NWS)

                            
000
ASUS46 KSEW 190120
RWRWA 

WASHINGTON REGIONAL WEATHER ROUNDUP
NATIONAL WEATHER SERVICE SEATTLE WA
600 PM PDT WED SEP 18 2019

NOTE:"FAIR" INDICATES FEW OR NO CLOUDS BELOW 12,000 FEET WITH NO 
SIGNIFICANT WEATHER AND/OR OBSTRUCTIONS TO VISIBILITY.

WAZ507-509-555>559-190200-
SEATTLE, TACOMA, EVERETT, AND VICINITY
  
CITY           SKY/WX    TMP DP  RH WIND       PRES   REMARKS
EVERETT        SUNNY     62  52  69 NW7       29.94R                  
BOEING FIELD   MOSUNNY   65  52  62 NW8       29.93R                  
RENTON         MOSUNNY   66  52  60 NW10      29.91R                  
SEATAC AIRPORT MOSUNNY   66  51  58 N9        29.93R                  
JBLM-MCCHORD   MOSUNNY   65  57  75 N7        29.93R                  
PUYALLUP       PTSUNNY   63  57  82 CALM      29.93R                  
BREMERTON      SUNNY     64  52  64 N9        29.93                   
JBLM-FT LEWIS  PTSUNNY   66  60  79 N10       29.92R                  
TACOMA NARROWS PTSUNNY   62  51  67 NE7       29.94R                  
$$
 
WAZ001-503-506-510-514-515-190200-
NORTH INTERIOR
  
CITY           SKY/WX    TMP DP  RH WIND       PRES   REMARKS
BELLINGHAM     SUNNY     64  52  64 NW5       29.93R                  
FRIDAY HARBOR  SUNNY     63  52  67 SW3       29.94R                  
EASTSOUND      SUNNY     61  52  72 CALM      29.93S                  
PORT ANGELES   SUNNY     63  50  62 CALM      29.95R                  
EDIZ HOOK      FAIR      58  52  81 CALM      29.95R                  
PORT TOWNSEND  FAIR      63  52  67 NW7       29.94R                  
NAS WHIDBEY    PTSUNNY   61  52  72 W9        29.98R                  
ARLINGTON      PTSUNNY   64  51  62 NW12      29.93R                  
BURLINGTON     SUNNY     64  54  68 W9        29.93R                  
$$
 
WAZ020-022-039-040-504-511-512-190200-
SOUTHWEST INTERIOR
  
CITY           SKY/WX    TMP DP  RH WIND       PRES   REMARKS
SHELTON        PTSUNNY   65  51  60 N5        29.90R                  
OLYMPIA        MOSUNNY   67  51  56 N9        29.92R                  
CHEHALIS       LGT RAIN  61  57  88 CALM      29.93R                  
KELSO          PTSUNNY   63  56  78 CALM      29.92R                  
VANCOUVER      LGT RAIN  64  53  67 NW8       29.90R                  
SCAPPOOSE, OR  PTSUNNY   64  56  75 VRB3      29.90R                  
PORTLAND, OR   PTSUNNY   66  52  60 N6        29.90R                  
$$
 
WAZ021-516-517-190200-
WASHINGTON COAST
  
CITY           SKY/WX    TMP DP  RH WIND       PRES   REMARKS
FORKS          SUNNY     64  54  69 NW7       29.93R                  
HOQUIAM        SUNNY     64  57  78 W9        29.93R                  
ASTORIA, OR    MOSUNNY   63  55  75 NW13      29.92R                  
$$
 
WAZ019-023-024-040-567>569-190200-
CASCADE MOUNTAINS AND COLUMBIA GORGE
  
CITY           SKY/WX    TMP DP  RH WIND       PRES   REMARKS
STAMPEDE PASS  FOG       48  46  93 VRB3      29.95R VSB 1/4          
TROUTDALE, OR  PTSUNNY   66  51  58 CALM      29.89R                  
HOOD RIVER, OR MOCLDY    61  50  67 CALM      29.90R                  
THE DALLES, OR PTSUNNY   66  48  52 W16       29.86R                  
$$

WAZ026-027-041>044-520-521-190200-
EAST SLOPES
  
CITY           SKY/WX    TMP DP  RH WIND       PRES   REMARKS
OMAK           PTCLDY    62  47  57 N8        29.91R                  
WENATCHEE      CLOUDY    62  50  64 NW9       29.89R                  
ELLENSBURG     PTSUNNY   62  49  62 CALM      29.89S                  
YAKIMA         CLOUDY    65  48  54 N6        29.88R                  
SUNNYSIDE ARPT DRIZZLE   62  56  79 CALM      29.87R                  
YAKIMA TC      FAIR      62  46  55 E9        29.87R                  
$$

WAZ028-034-035-190200-
COLUMBIA BASIN
  
CITY           SKY/WX    TMP DP  RH WIND       PRES   REMARKS
EPHRATA        PTSUNNY   66  48  52 NW9       29.87R                  
MOSES LAKE     MOCLDY    66  47  50 N13       29.87R                  
PASCO          PTCLDY    71  47  42 NW3       29.84R                  
RICHLAND ARPT  MOCLDY    72  48  42 NW3       29.84                   
HERMISTON, OR  MOSUNNY   72  45  37 N5        29.83R                  
$$

WAZ036>038-190200-
NORTHEAST WASHINGTON
  
CITY           SKY/WX    TMP DP  RH WIND       PRES   REMARKS
SPOKANE GEIGER MOCLDY    56  49  77 E7        29.90S                  
SPOKANE FELTS  CLOUDY    59  47  64 CALM      29.91S                  
FAIRCHILD AFB  PTCLDY    55  52  91 NE7       29.90R                  
COEURDALENE,ID CLOUDY    56  51  84 N6        29.93R                  
DEER PARK      LGT RAIN  56  52  86 NE7       29.92R                  
$$

WAZ029>033-190200-
SOUTHEAST WASHINGTON
  
CITY           SKY/WX    TMP DP  RH WIND       PRES   REMARKS
PULLMAN        CLOUDY    59  46  62 S6        29.91R                  
LEWISTON, ID   CLOUDY    64  46  52 SW9       29.88R                  
WALLA WALLA    MOCLDY    69  45  41 E6        29.85R                  
PENDLETON, OR  MOCLDY    67  41  38 NW8       29.85R                  
$$